Voltar ao catálogo

FENGYUN 1C DEB

AtivoSSO
NORAD 29945·DEBRIS·🇨🇳 China

Lançado May 10, 1999 de Taiyuan Satellite Launch Center

Loading…

Próximas Passagens (próximas 24 horas)

TLE

AtualizadoSource: Space-Track

Época: Sep 14, 2026, 01:46 UTC

1 29945U 99025JT  26257.07368541  .00000169  00000-0  12929-3 0  9992
2 29945  98.7721 277.1809 0030017 308.8184  68.0008 14.05666973  8470

Acompanhe FENGYUN 1C DEB em tempo real com AllMySat

Download on the App Store